Regional Weather Roundup
Issued by NWS

Home | Current Version | Previous Version | Graphics & Text | Print | Product List | Glossary On
Versions: 1 2 3 4 5 6 7 8 9 10 11 12 13 14 15 16 17 18 19 20 21 22 23 24 25 26 27 28 29 30 31 32 33 34 35 36 37 38 39 40 41 42 43 44 45 46 47 48 49 50
000
ASUS43 KFSD 230810
RWRSD

WEATHER ROUNDUP FOR SOUTH DAKOTA
NATIONAL WEATHER SERVICE SIOUX FALLS SD
200 AM CST MON JAN 23 2017

NOTE: "FAIR" INDICATES FEW OR NO CLOUDS BELOW 12,000 FEET WITH NO
SIGNIFICANT WEATHER AND/OR OBSTRUCTIONS TO VISIBILITY.


SDZ001>005-009-010-012>017-230900-
NORTHWEST AND NORTH CENTRAL SOUTH DAKOTA

CITY           SKY/WX    TMP DP  RH WIND       PRES   REMARKS
BUFFALO          N/A     19  16  88 CALM      29.69F
FAITH            N/A     24  20  84 NE5       29.80F WCI  18
MOBRIDGE       CLOUDY    29  23  78 N3        29.80F
$$

SDZ012>016-024>037-041>051-057-063-072>074-230900-
SOUTHWEST AND SOUTH CENTRAL SOUTH DAKOTA

CITY           SKY/WX    TMP DP  RH WIND       PRES   REMARKS
RAPID CTY ARPT CLEAR     21  18  88 E3        29.73F
PIERRE         CLOUDY    26  23  88 SW3       29.85F
CUSTER         CLOUDY    27  12  53 SW5       29.67F WCI  22
ELLSWORTH AFB  CLEAR     24  22  91 S5        29.73F WCI  18
PHILIP         FOG       16  16 100 CALM      29.83F VSB 1/4
PINE RIDGE     CLEAR     14  11  87 NE3       29.76F
SPEARFISH      FAIR      27  16  63 CALM      29.70F
WINNER         FOG       25  23  92 NE3       29.86F VSB 1/4
$$

SDZ004>011-016>023-039-040-230900-
NORTHEAST SOUTH DAKOTA

CITY           SKY/WX    TMP DP  RH WIND       PRES   REMARKS
ABERDEEN       CLOUDY    31  25  78 NW6       29.85F WCI  25
WATERTOWN      CLOUDY    30  27  88 NW9       29.82S WCI  22
BROOKINGS      CLOUDY    31  28  89 NW13      29.83S WCI  21
SISSETON         N/A     33  31  92 N9        29.82R WCI  25
$$

SDZ017-020-022-023-036>040-048>070-230900-
SOUTHEAST SOUTH DAKOTA

CITY           SKY/WX    TMP DP  RH WIND       PRES   REMARKS
SIOUX FALLS    CLOUDY    32  29  88 W13       29.86S WCI  22
HURON          CLOUDY    30  27  88 NW7       29.87F WCI  23
CHAMBERLAIN    CLOUDY    31  28  88 N5        29.86F WCI  26
MITCHELL       CLOUDY    31  27  85 NW10      29.89F WCI  22
YANKTON        CLOUDY    30  27  86 W12       29.88F WCI  21
$$

ABBREVIATIONS USED IN REMARKS
   TC - TEMPERATURE IN CELSIUS
  WCI - WIND CHILL INDEX
   HX - HEAT INDEX
  VSB - VISIBILITY




USA.gov is the U.S. government's official web portal to all federal, state and local government web resources and services.